Hourly Weather Cenotillo

Today, 13 June, Sunday

Time Temperature Precipitation Wind Pressure Humidity
00:00 +26°C° 0 mm 1 mps 757 mmHg 90%
01:00 +26°C° 0 mm 1 mps 757 mmHg 91%
02:00 +26°C° 0 mm 1 mps 757 mmHg 91%
03:00 +26°C° 0 mm 1 mps 756 mmHg 92%
04:00 +26°C° 0.1 mm 1 mps 757 mmHg 92%
05:00 +26°C° 0.1 mm 1 mps 757 mmHg 92%
06:00 +26°C° 0.1 mm 1 mps 757 mmHg 91%
07:00 +27°C° 0.3 mm 2 mps 757 mmHg 87%
08:00 +28°C° 0.3 mm 2 mps 758 mmHg 82%
09:00 +29°C° 0.3 mm 2 mps 758 mmHg 78%
10:00 +29°C° 0.1 mm 3 mps 758 mmHg 74%
11:00 +30°C° 0.1 mm 3 mps 758 mmHg 70%
12:00 +30°C° 0.1 mm 3 mps 758 mmHg 67%
13:00 +30°C° 0 mm 3 mps 758 mmHg 68%
14:00 +29°C° 0 mm 2 mps 757 mmHg 70%
15:00 +29°C° 0 mm 2 mps 757 mmHg 71%
16:00 +28°C° 0 mm 2 mps 757 mmHg 74%
17:00 +28°C° 0 mm 2 mps 757 mmHg 77%
18:00 +27°C° 0 mm 1 mps 757 mmHg 79%
19:00 +26°C° 0 mm 1 mps 757 mmHg 81%
20:00 +26°C° 0 mm 1 mps 757 mmHg 83%
21:00 +26°C° 0 mm 1 mps 758 mmHg 85%
22:00 +26°C° 0 mm 1 mps 757 mmHg 86%
23:00 +25°C° 0 mm 1 mps 757 mmHg 87%

Tomorrow, 14 June, Monday

Time Temperature Precipitation Wind Pressure Humidity
00:00 +25°C° 0 mm 1 mps 757 mmHg 88%
01:00 +25°C° 0 mm 1 mps 757 mmHg 89%
02:00 +25°C° 0 mm 1 mps 757 mmHg 90%
03:00 +25°C° 0 mm 1 mps 756 mmHg 91%
04:00 +25°C° 0.4 mm 1 mps 757 mmHg 92%
05:00 +25°C° 0.4 mm 1 mps 757 mmHg 94%
06:00 +25°C° 0.4 mm 1 mps 757 mmHg 95%
07:00 +25°C° 0.6 mm 1 mps 758 mmHg 93%
08:00 +26°C° 0.6 mm 1 mps 758 mmHg 92%
09:00 +26°C° 0.6 mm 1 mps 758 mmHg 91%
10:00 +26°C° 0.3 mm 2 mps 758 mmHg 90%
11:00 +26°C° 0.3 mm 2 mps 758 mmHg 89%
12:00 +26°C° 0.3 mm 3 mps 758 mmHg 88%
13:00 +26°C° 0 mm 3 mps 758 mmHg 89%
14:00 +26°C° 0 mm 3 mps 757 mmHg 90%
15:00 +26°C° 0 mm 3 mps 757 mmHg 90%
16:00 +26°C° 0 mm 3 mps 757 mmHg 90%
17:00 +25°C° 0 mm 2 mps 757 mmHg 89%
18:00 +25°C° 0 mm 2 mps 757 mmHg 89%
19:00 +25°C° 0 mm 2 mps 758 mmHg 89%
20:00 +25°C° 0 mm 2 mps 758 mmHg 90%
21:00 +25°C° 0 mm 2 mps 758 mmHg 91%
22:00 +24°C° 0 mm 2 mps 758 mmHg 93%
23:00 +24°C° 0 mm 1 mps 758 mmHg 95%

Day after tomorrow, 15 June, Tuesday

Time Temperature Precipitation Wind Pressure Humidity
00:00 +24°C° 0 mm 1 mps 758 mmHg 97%
01:00 +24°C° 0 mm 1 mps 757 mmHg 97%
02:00 +24°C° 0 mm 1 mps 757 mmHg 96%
03:00 +25°C° 0 mm 1 mps 757 mmHg 96%
04:00 +25°C° 0 mm 1 mps 757 mmHg 96%
05:00 +25°C° 0 mm 1 mps 757 mmHg 96%
06:00 +25°C° 0 mm 2 mps 758 mmHg 95%
07:00 +26°C° 0.1 mm 2 mps 758 mmHg 91%
08:00 +27°C° 0.1 mm 2 mps 758 mmHg 86%
09:00 +29°C° 0.1 mm 3 mps 758 mmHg 82%
10:00 +30°C° 0 mm 3 mps 758 mmHg 73%
11:00 +33°C° 0 mm 3 mps 758 mmHg 64%
12:00 +34°C° 0 mm 4 mps 758 mmHg 56%
13:00 +34°C° 0 mm 4 mps 757 mmHg 54%
14:00 +34°C° 0 mm 5 mps 757 mmHg 53%
15:00 +35°C° 0 mm 5 mps 757 mmHg 52%
16:00 +33°C° 0 mm 4 mps 757 mmHg 59%
17:00 +30°C° 0 mm 3 mps 757 mmHg 66%
18:00 +29°C° 0 mm 2 mps 758 mmHg 73%
19:00 +28°C° 0.4 mm 1 mps 758 mmHg 79%
20:00 +27°C° 0.4 mm 1 mps 758 mmHg 86%
21:00 +26°C° 0.4 mm 1 mps 759 mmHg 93%
22:00 +26°C° 0.2 mm 1 mps 759 mmHg 94%
23:00 +26°C° 0.2 mm 2 mps 758 mmHg 95%

16 June, Wednesday

Time Temperature Precipitation Wind Pressure Humidity
00:00 +26°C° 0.2 mm 2 mps 758 mmHg 96%
01:00 +26°C° 0 mm 2 mps 758 mmHg 96%
02:00 +26°C° 0 mm 2 mps 757 mmHg 96%
03:00 +26°C° 0 mm 2 mps 757 mmHg 96%
04:00 +26°C° 0.1 mm 2 mps 757 mmHg 96%
05:00 +26°C° 0.1 mm 2 mps 757 mmHg 96%
06:00 +26°C° 0.1 mm 2 mps 757 mmHg 95%
07:00 +26°C° 0.2 mm 2 mps 758 mmHg 94%
08:00 +26°C° 0.2 mm 2 mps 758 mmHg 92%
09:00 +26°C° 0.2 mm 2 mps 758 mmHg 91%
10:00 +26°C° 0.3 mm 2 mps 758 mmHg 90%
11:00 +26°C° 0.3 mm 3 mps 758 mmHg 90%
12:00 +27°C° 0.3 mm 3 mps 758 mmHg 89%
13:00 +26°C° 1.3 mm 2 mps 757 mmHg 92%
14:00 +26°C° 1.3 mm 2 mps 757 mmHg 94%
15:00 +25°C° 1.3 mm 2 mps 757 mmHg 96%
16:00 +25°C° 0.4 mm 2 mps 757 mmHg 97%
17:00 +25°C° 0.4 mm 2 mps 757 mmHg 97%
18:00 +25°C° 0.4 mm 2 mps 757 mmHg 97%
19:00 +25°C° 0.7 mm 2 mps 757 mmHg 98%
20:00 +25°C° 0.7 mm 2 mps 757 mmHg 98%
21:00 +25°C° 0.7 mm 2 mps 757 mmHg 99%
22:00 +25°C° 0.4 mm 2 mps 757 mmHg 99%
23:00 +25°C° 0.4 mm 2 mps 757 mmHg 99%

17 June, Thursday

Time Temperature Precipitation Wind Pressure Humidity
00:00 +25°C° 0.4 mm 2 mps 756 mmHg 99%
01:00 +25°C° 4.2 mm 2 mps 756 mmHg 99%
02:00 +25°C° 4.2 mm 2 mps 755 mmHg 99%
03:00 +25°C° 4.2 mm 3 mps 755 mmHg 98%
04:00 +25°C° 7 mm 3 mps 755 mmHg 98%
05:00 +24°C° 7 mm 3 mps 755 mmHg 98%
06:00 +24°C° 7 mm 3 mps 755 mmHg 98%
07:00 +24°C° 3.9 mm 3 mps 756 mmHg 98%
08:00 +24°C° 3.9 mm 3 mps 756 mmHg 98%
09:00 +23°C° 3.9 mm 4 mps 756 mmHg 98%
10:00 +24°C° 1.4 mm 3 mps 756 mmHg 98%
11:00 +24°C° 1.4 mm 3 mps 755 mmHg 97%
12:00 +25°C° 1.4 mm 2 mps 755 mmHg 97%
13:00 +25°C° 0.4 mm 3 mps 755 mmHg 96%
14:00 +26°C° 0.4 mm 3 mps 755 mmHg 95%
15:00 +26°C° 0.4 mm 4 mps 754 mmHg 94%
16:00 +26°C° 0.4 mm 4 mps 754 mmHg 94%
17:00 +26°C° 0.4 mm 4 mps 755 mmHg 95%
18:00 +25°C° 0.4 mm 4 mps 755 mmHg 95%
19:00 +25°C° 2.1 mm 4 mps 755 mmHg 96%
20:00 +25°C° 2.1 mm 4 mps 756 mmHg 97%
21:00 +25°C° 2.1 mm 4 mps 756 mmHg 97%
22:00 +25°C° 1 mm 4 mps 756 mmHg 97%
23:00 +23°C° 1 mm 4 mps 756 mmHg 96%

18 June, Friday

Time Temperature Precipitation Wind Pressure Humidity
00:00 +23°C° 1 mm 4 mps 756 mmHg 96%
01:00 +23°C° 0.2 mm 4 mps 756 mmHg 96%
02:00 +25°C° 0.2 mm 4 mps 755 mmHg 97%
03:00 +25°C° 0.2 mm 3 mps 755 mmHg 97%
04:00 +25°C° 0.7 mm 4 mps 755 mmHg 96%
05:00 +25°C° 0.7 mm 4 mps 756 mmHg 96%
06:00 +26°C° 0.7 mm 4 mps 756 mmHg 95%
07:00 +26°C° 0.2 mm 4 mps 756 mmHg 93%
08:00 +26°C° 0.2 mm 4 mps 756 mmHg 91%
09:00 +27°C° 0.2 mm 4 mps 757 mmHg 89%
10:00 +27°C° 0.5 mm 4 mps 756 mmHg 91%
11:00 +27°C° 0.5 mm 4 mps 756 mmHg 92%
12:00 +26°C° 0.5 mm 4 mps 756 mmHg 93%
13:00 +27°C° 0.1 mm 4 mps 756 mmHg 91%
14:00 +27°C° 0.1 mm 4 mps 756 mmHg 89%
15:00 +27°C° 0.1 mm 4 mps 755 mmHg 87%
16:00 +27°C° 0.1 mm 4 mps 755 mmHg 88%
17:00 +27°C° 0.1 mm 4 mps 755 mmHg 89%
18:00 +26°C° 0.1 mm 4 mps 756 mmHg 90%
19:00 +26°C° 0 mm 4 mps 756 mmHg 91%
20:00 +26°C° 0 mm 3 mps 756 mmHg 91%
21:00 +26°C° 0 mm 3 mps 757 mmHg 91%
22:00 +26°C° 0 mm 3 mps 756 mmHg 91%
23:00 +26°C° 0 mm 3 mps 756 mmHg 91%
Show more

We Need Your Consent

Meteoprog and our Service Providers may store and access personal data such as cookies, device identifiers or other similar technologies on your device and process such data to personalise content and ads, as well as provide social media features and to analyse the traffic.

  • Store and/or access information on your device

    Cookies, device identifiers or other information can be stored or accessed on your device for the purposes indicated above.

  • Personalised ads and content, ad and content measurement, audience insights, and products development

    Ads and content can be personalised based on a profile. More data can be added to better personalise ads and content. Ad and content performance can be measured. Insights about the audience who saw the ads and content can be derived. Such data can be used to develop or improve user’s experience, systems and software.

By clicking ‘I Agree’ you will allow the use of indicated cookies, device identifiers, web beacons or other similar technologies. Your settings can be changed in the browser on your device.

For certain purposes, legitimate interests may be relied on, rather than consent. You can read more about this in our Privacy and Cookie Policy.